Starlink 32598

operational
NORAD ID: 62046 Int'l Des: 2024-216 Owner: SPXS Country: US Constellation: starlink
LEOCIRCULAR

关于 Starlink 32598

正在加载描述...

实时位置

正在加载3D地球...

即将过境

高度历史

Altitude vs Time

uPlot chart will show altitude changes over time

两行轨道根数

1 62046U 24216Q 25306.13685001 -.00027634 00000-0 -99843-3 0 9993
2 62046 43.0026 256.1953 0000963 265.6420 94.4322 15.27580210 54373
Epoch: Nov 2, 2025 • Age: 22 hours

当前状态

高度 483.1 km
速度 7.63 km/s
星下点 22.18°N, 146.81°W
发射日期 Nov 21, 2024
运行时间 0.9 years
类型 internet

技术详情

分类 Payload
质量 730.00 kg
干质量 700.00 kg
总质量 730.00 kg
长度 0.30 m
直径 4.10 m
跨度 29.00 m
形状 Box + pan
制造商 SPXS
平台类型 Starlink V2M
阶段状态 In Orbit
所有者/国家 SPXS/US

大型星座

Loading constellations...